CZ-3B DEB, 40179

Orbit data source: Space-Track

CZ-3B DEB, 40179 is space debris in HEO originally from a launch on Mon, 19 Dec 2011 UTC launched from the Xichang Space Center, China (XSC). Debris objects in space refer to the collection of defunct objects orbiting the Earth. Examples of debris include non-operational satellites, rocket bodies, and fragments generated from explosions, collisions, or faulty payload assembly.

Loading next visibility...
Identifier
40179, 2011-077C
Orbit
HEO
Country
Flag of CNCN / PRC
Related business
Manufacturer
CALT
Mission
Spacecraft
Bus & Motor
Unknown
Mass
Unknown
Launch date (UTC)
2011-12-19 (14 years ago)
Launch vehicle
Unknown
Launch site
Xichang Space Center, China (XSC)
Object type
Payload
Rocket body
Debris
Shape & HBR
Unknown shape, 0.3 m
Radar Cross Section
Medium (>0.1 m² and <1 m²)

Expand to show TLE details & history
Last TLE update: 1 week ago

TLE from 1 week ago
0 CZ-3B DEB
1 40179U 11077C   25283.58447312 -.00000080  00000-0  24050-2 0  9993
2 40179  26.3591   6.3912 7420114  33.0491 356.4555  1.91881433 83315
Epoch: 2025-10-10T14:01Z
TLE epoch observation values (Epoch: 2025-10-10T14:01:38.477Z)
Latitude
-0.00026°
Longitude
136.55906°
Altitude
1,165.204 km
Speed
9.545 km/s
True Right ascension
00h 25m 35s
True Declination
0° 00' 01"
Sunlit
Object was in full shadow at epoch
Visualization orbit readout
Latitude
Unknown
Longitude
Unknown
Altitude
Unknown
Speed
Unknown
Apparent Right ascension
Unknown
Apparent Declination
Unknown
Sunlit
N/A
Visualization observer readout
Local Sidereal Time
05:53:29
Azimuth
Unknown
Elevation
Unknown
Doppler factor
Unknown
Orbital elements
Apogee altitude
41,282.248 km
Perigee altitude
680.276 km
Semi-major axis
27,359.399 km
Eccentricity
0.74201
Inclination
26.3591°
RAAN
6.3912°
Arg. of periapsis
33.0491°
True anomaly
326.0753°
Mean anomaly
356.4555°
Eccentric anomaly
346.61057°
Mean motion
0.4796 °/min
Orbital period
750.62 mins
BSTAR
0.002405
Loading maneuver chart data...
Computing Atmospheric mass density...
Loading historical data...
Loading historical data...
Loading historical data...
Loading historical data...
Loading historical data...
Loading historical data...
Loading historical data...

Documentation

Showing up to 5 results
|